Weather History for Whiteman AFB, MO

Change the Weather History Date:

Saturday, July 27, 2013

  Actual Average Record
Temperature  
Mean Temperature 67 °F -  
Max Temperature 78 °F 86 °F 109 °F (2003)
Min Temperature 57 °F 68 °F 55 °F (2004)
Cooling Degree Days 2    
Growing Degree Days 17 (Base 50)    
Moisture  
Dew Point 55 °F    
Average Humidity 68    
Maximum Humidity 100    
Minimum Humidity 40    
Precipitation  
Precipitation 0.00 in - - ()
Sea Level Pressure  
Sea Level Pressure 30.04 in    
Wind  
Wind Speed 8 mph (North)    
Max Wind Speed 15 mph    
Max Gust Speed 25 mph    
Visibility 10 miles    
Events      
Averages and records for this station are not official NWS values.
T = Trace of Precipitation, MM = Missing Value Source: NWS Daily Summary

Daily Weather History Graph

Daily Weather History Graph

Search for Another Location

Airport:

Trip Planner

Search our weather history database for the weather conditions in past years. The results will help you decide how hot, cold, wet, or windy it might be!

Date:

Astronomy

Jul. 27, 2013 Rise Set
Actual Time 6:11 AM CDT 8:29 PM CDT
Civil Twilight 5:41 AM CDT 8:59 PM CDT
Nautical Twilight 5:04 AM CDT 9:36 PM CDT
Astronomical Twilight 4:23 AM CDT 10:16 PM CDT
Moon 11:21 PM CDT (7/27) 11:48 AM CDT (7/27)
Length of Visible Light 15h 17m
Length of Day
14h 17m
Waning Gibbous, 70% of the Moon is Illuminated
Jul 27
Waning Gibbous
Jul 29
Last Quarter
Aug 6
New
Aug 14
First Quarter
Aug 20
Full

Hourly Weather History & Observations

Time (CDT) Temp. Dew Point Humidity Pressure Visibility Wind Dir Wind Speed Gust Speed Precip Events Conditions
12:58 AM 64.4 °F 59.4 °F 84% 30.06 in 10.0 mi North 9.2 mph - N/A   Clear
1:58 AM 61.7 °F 59.7 °F 93% 30.06 in 10.0 mi North 6.9 mph - N/A   Clear
2:58 AM 59.7 °F 59.5 °F 99% 30.05 in 10.0 mi NNW 3.5 mph - N/A   Clear
3:58 AM 59.4 °F 59.0 °F 99% 30.04 in 10.0 mi NNW 4.6 mph - N/A   Clear
4:58 AM 59.0 °F 59.0 °F 100% 30.04 in 10.0 mi NNW 4.6 mph - N/A   Clear
6:56 AM 57.2 °F 57.2 °F 100% 30.08 in 10.0 mi NNW 9.2 mph - N/A   Clear
7:58 AM 61.0 °F 59.5 °F 95% 30.08 in 10.0 mi North 9.2 mph - N/A   Clear
8:58 AM 65.3 °F 57.6 °F 76% 30.09 in 10.0 mi North 9.2 mph - N/A   Clear
9:58 AM 68.4 °F 56.5 °F 66% 30.09 in 10.0 mi North 8.1 mph - N/A   Partly Cloudy
10:58 AM 71.2 °F 53.6 °F 54% 30.06 in 10.0 mi North 9.2 mph - N/A   Clear
11:58 AM 73.6 °F 51.8 °F 46% 30.06 in 10.0 mi NNW 13.8 mph 21.9 mph N/A   Scattered Clouds
12:42 PM 73.4 °F 51.8 °F 47% 30.07 in 10.0 mi NNW 15.0 mph 25.3 mph N/A   Mostly Cloudy
12:58 PM 73.8 °F 52.9 °F 48% 30.06 in 10.0 mi North 10.4 mph 21.9 mph N/A   Scattered Clouds
1:58 PM 74.1 °F 52.9 °F 47% 30.04 in 10.0 mi NNE 10.4 mph - N/A   Mostly Cloudy
3:58 PM 77.4 °F 51.4 °F 40% 30.01 in 10.0 mi Variable 6.9 mph - N/A   Clear
4:58 PM 77.7 °F 52.0 °F 41% 30.01 in 10.0 mi NNW 6.9 mph - N/A   Clear
5:58 PM 75.9 °F 51.1 °F 42% 30.00 in 10.0 mi NNW 6.9 mph - N/A   Clear
6:58 PM 75.7 °F 52.9 °F 45% 29.99 in 10.0 mi NNW 8.1 mph - N/A   Clear
7:58 PM 73.0 °F 53.8 °F 51% 29.99 in 10.0 mi NW 5.8 mph - N/A   Clear
8:58 PM 68.5 °F 54.0 °F 60% 29.99 in 10.0 mi North 8.1 mph - N/A   Clear
9:58 PM 63.3 °F 55.0 °F 74% 30.01 in 10.0 mi NNE 8.1 mph - N/A   Clear
10:58 PM 63.1 °F 54.7 °F 74% 30.01 in 10.0 mi NE 2.3 mph - N/A   Clear
11:58 PM 60.4 °F 55.0 °F 82% 30.02 in 10.0 mi Calm Calm - N/A   Clear